Time,TemperatureF,DewpointF,PressureIn,WindDirection,WindDirectionDegrees,WindSpeedMPH,WindSpeedGustMPH,Humidity,HourlyPrecipIn,Conditions,Clouds,dailyrainin,SoftwareType,DateUTC
2013-02-17 00:05:00,53.0,38.0,30.19,NW,312,6.0,9.0,58,0.00,,,0.00,weatherlink.com 1.10,2013-02-17 05:05:00,
2013-02-17 00:20:00,52.5,37.0,30.19,NW,304,6.0,9.0,55,0.00,,,0.00,weatherlink.com 1.10,2013-02-17 05:20:00,
2013-02-17 00:35:00,52.2,37.0,30.20,NW,314,3.0,10.0,57,0.00,,,0.00,weatherlink.com 1.10,2013-02-17 05:35:00,
2013-02-17 00:50:00,51.8,36.0,30.20,NW,307,3.0,14.0,56,0.00,,,0.00,weatherlink.com 1.10,2013-02-17 05:50:00,
2013-02-17 01:06:00,51.4,35.0,30.21,NW,306,2.0,9.0,54,0.00,,,0.00,weatherlink.com 1.10,2013-02-17 06:06:00,
2013-02-17 01:20:00,51.0,34.0,30.21,NW,309,6.0,10.0,53,0.00,,,0.00,weatherlink.com 1.10,2013-02-17 06:20:00,
2013-02-17 01:36:00,50.7,34.0,30.21,NW,310,3.0,9.0,53,0.00,,,0.00,weatherlink.com 1.10,2013-02-17 06:36:00,
2013-02-17 01:51:00,50.3,33.0,30.21,NW,309,3.0,5.0,52,0.00,,,0.00,weatherlink.com 1.10,2013-02-17 06:51:00,
2013-02-17 02:06:00,50.1,32.0,30.21,NW,309,3.0,12.0,51,0.00,,,0.00,weatherlink.com 1.10,2013-02-17 07:06:00,
2013-02-17 02:21:00,49.8,32.0,30.21,NW,314,3.0,6.0,51,0.00,,,0.00,weatherlink.com 1.10,2013-02-17 07:21:00,
2013-02-17 02:36:00,49.4,31.0,30.22,NW,316,1.0,8.0,50,0.00,,,0.00,weatherlink.com 1.10,2013-02-17 07:36:00,
2013-02-17 02:51:00,49.0,30.0,30.22,NW,309,1.0,5.0,49,0.00,,,0.00,weatherlink.com 1.10,2013-02-17 07:51:00,
2013-02-17 03:06:00,48.7,30.0,30.22,North,350,2.0,8.0,49,0.00,,,0.00,weatherlink.com 1.10,2013-02-17 08:06:00,
2013-02-17 03:21:00,48.7,31.0,30.22,NW,311,1.0,9.0,51,0.00,,,0.00,weatherlink.com 1.10,2013-02-17 08:21:00,
2013-02-17 03:36:00,48.4,31.0,30.23,NW,307,1.0,6.0,52,0.00,,,0.00,weatherlink.com 1.10,2013-02-17 08:36:00,
2013-02-17 03:51:00,47.3,32.0,30.22,NW,321,2.0,8.0,55,0.00,,,0.00,weatherlink.com 1.10,2013-02-17 08:51:00,
2013-02-17 04:06:00,47.1,32.0,30.23,WNW,297,1.0,6.0,57,0.00,,,0.00,weatherlink.com 1.10,2013-02-17 09:06:00,
2013-02-17 04:21:00,46.7,32.0,30.23,NNW,345,3.0,9.0,56,0.00,,,0.00,weatherlink.com 1.10,2013-02-17 09:21:00,
2013-02-17 04:36:00,46.0,30.0,30.24,NNW,338,3.0,6.0,53,0.00,,,0.00,weatherlink.com 1.10,2013-02-17 09:36:00,
2013-02-17 04:51:00,43.8,26.0,30.24,NE,42,2.0,6.0,50,0.00,,,0.00,weatherlink.com 1.10,2013-02-17 09:51:00,
2013-02-17 05:06:00,43.1,24.0,30.25,NE,39,1.0,6.0,47,0.00,,,0.00,weatherlink.com 1.10,2013-02-17 10:06:00,
2013-02-17 05:21:00,42.8,23.0,30.26,NNE,28,4.0,8.0,46,0.00,,,0.00,weatherlink.com 1.10,2013-02-17 10:21:00,
2013-02-17 05:36:00,42.5,23.0,30.27,NE,56,4.0,8.0,46,0.00,,,0.00,weatherlink.com 1.10,2013-02-17 10:36:00,
2013-02-17 05:51:00,42.2,22.0,30.28,ENE,66,5.0,10.0,45,0.00,,,0.00,weatherlink.com 1.10,2013-02-17 10:51:00,
2013-02-17 06:07:00,41.8,21.0,30.28,NW,321,3.0,8.0,44,0.00,,,0.00,weatherlink.com 1.10,2013-02-17 11:07:00,
2013-02-17 06:21:00,41.3,21.0,30.29,North,353,2.0,10.0,44,0.00,,,0.00,weatherlink.com 1.10,2013-02-17 11:21:00,
2013-02-17 06:36:00,41.0,20.0,30.29,North,11,2.0,9.0,44,0.00,,,0.00,weatherlink.com 1.10,2013-02-17 11:36:00,
2013-02-17 06:52:00,40.5,21.0,30.30,NNE,17,2.0,9.0,45,0.00,,,0.00,weatherlink.com 1.10,2013-02-17 11:52:00,
2013-02-17 07:06:00,40.0,20.0,30.31,NE,34,7.0,8.0,45,0.00,,,0.00,weatherlink.com 1.10,2013-02-17 12:06:00,
2013-02-17 07:22:00,39.9,20.0,30.30,East,84,1.0,13.0,45,0.00,,,0.00,weatherlink.com 1.10,2013-02-17 12:22:00,
2013-02-17 07:37:00,40.2,20.0,30.31,NNE,30,6.0,12.0,44,0.00,,,0.00,weatherlink.com 1.10,2013-02-17 12:37:00,
2013-02-17 07:57:00,41.3,20.0,30.32,ENE,77,3.0,9.0,42,0.00,,,0.00,weatherlink.com 1.10,2013-02-17 12:57:00,
2013-02-17 08:15:00,42.3,19.0,30.33,NNW,329,3.0,10.0,40,0.00,,,0.00,weatherlink.com 1.10,2013-02-17 13:15:00,
2013-02-17 08:33:00,43.3,20.0,30.34,ENE,60,3.0,9.0,40,0.00,,,0.00,weatherlink.com 1.10,2013-02-17 13:33:00,
2013-02-17 08:53:00,44.2,22.0,30.35,NNW,327,3.0,11.0,41,0.00,,,0.00,weatherlink.com 1.10,2013-02-17 13:53:00,
2013-02-17 09:11:00,44.9,22.0,30.36,NNE,27,5.0,11.0,41,0.00,,,0.00,weatherlink.com 1.10,2013-02-17 14:11:00,
2013-02-17 09:29:00,45.9,24.0,30.36,NNE,24,7.0,10.0,43,0.00,,,0.00,weatherlink.com 1.10,2013-02-17 14:29:00,
2013-02-17 09:47:00,46.2,25.0,30.36,ENE,70,7.0,13.0,43,0.00,,,0.00,weatherlink.com 1.10,2013-02-17 14:47:00,
2013-02-17 10:07:00,46.9,26.0,30.37,NNW,338,3.0,10.0,44,0.00,,,0.00,weatherlink.com 1.10,2013-02-17 15:07:00,
2013-02-17 10:25:00,47.8,27.0,30.37,NW,309,1.0,8.0,45,0.00,,,0.00,weatherlink.com 1.10,2013-02-17 15:25:00,
2013-02-17 10:43:00,49.1,30.0,30.38,ENE,63,4.0,13.0,48,0.00,,,0.00,weatherlink.com 1.10,2013-02-17 15:43:00,
2013-02-17 11:02:00,49.5,31.0,30.38,NNW,346,3.0,6.0,50,0.00,,,0.00,weatherlink.com 1.10,2013-02-17 16:02:00,
2013-02-17 11:20:00,49.3,31.0,30.38,NW,311,3.0,8.0,50,0.00,,,0.00,weatherlink.com 1.10,2013-02-17 16:20:00,
2013-02-17 11:38:00,49.5,31.0,30.38,NE,44,5.0,13.0,49,0.00,,,0.00,weatherlink.com 1.10,2013-02-17 16:38:00,
2013-02-17 11:58:00,49.0,31.0,30.38,North,10,3.0,11.0,51,0.00,,,0.00,weatherlink.com 1.10,2013-02-17 16:58:00,
2013-02-17 12:16:00,49.2,32.0,30.38,NNE,15,7.0,10.0,52,0.00,,,0.00,weatherlink.com 1.10,2013-02-17 17:16:00,
2013-02-17 12:35:00,50.9,32.0,30.38,North,11,3.0,10.0,49,0.00,,,0.00,weatherlink.com 1.10,2013-02-17 17:35:00,
2013-02-17 12:53:00,50.6,32.0,30.37,NNW,330,2.0,6.0,49,0.00,,,0.00,weatherlink.com 1.10,2013-02-17 17:53:00,
2013-02-17 13:11:00,50.1,31.0,30.37,NNW,345,4.0,13.0,48,0.00,,,0.00,weatherlink.com 1.10,2013-02-17 18:11:00,
2013-02-17 13:31:00,50.9,30.0,30.36,North,357,2.0,10.0,45,0.00,,,0.00,weatherlink.com 1.10,2013-02-17 18:31:00,
2013-02-17 13:49:00,51.4,30.0,30.36,NNW,346,4.0,10.0,44,0.00,,,0.00,weatherlink.com 1.10,2013-02-17 18:49:00,
2013-02-17 14:07:00,51.3,31.0,30.35,NW,315,1.0,7.0,46,0.00,,,0.00,weatherlink.com 1.10,2013-02-17 19:07:00,
2013-02-17 14:25:00,51.0,30.0,30.34,WNW,300,3.0,8.0,44,0.00,,,0.00,weatherlink.com 1.10,2013-02-17 19:25:00,
2013-02-17 14:43:00,51.2,30.0,30.34,NW,315,4.0,6.0,45,0.00,,,0.00,weatherlink.com 1.10,2013-02-17 19:43:00,
2013-02-17 15:03:00,50.7,31.0,30.34,NW,309,3.0,6.0,47,0.00,,,0.00,weatherlink.com 1.10,2013-02-17 20:03:00,
2013-02-17 15:22:00,50.4,31.0,30.34,NNE,18,3.0,9.0,48,0.00,,,0.00,weatherlink.com 1.10,2013-02-17 20:22:00,
2013-02-17 15:40:00,50.9,31.0,30.34,NW,309,2.0,6.0,46,0.00,,,0.00,weatherlink.com 1.10,2013-02-17 20:40:00,
2013-02-17 15:58:00,50.4,31.0,30.34,WNW,282,2.0,6.0,47,0.00,,,0.00,weatherlink.com 1.10,2013-02-17 20:58:00,
2013-02-17 16:16:00,50.7,30.0,30.33,NNW,339,3.0,8.0,46,0.00,,,0.00,weatherlink.com 1.10,2013-02-17 21:16:00,
2013-02-17 16:34:00,50.3,30.0,30.33,NW,311,2.0,5.0,46,0.00,,,0.00,weatherlink.com 1.10,2013-02-17 21:34:00,
2013-02-17 16:54:00,50.2,29.0,30.32,NW,319,0.0,6.0,45,0.00,,,0.00,weatherlink.com 1.10,2013-02-17 21:54:00,
2013-02-17 17:14:00,49.3,29.0,30.33,NW,306,1.0,5.0,46,0.00,,,0.00,weatherlink.com 1.10,2013-02-17 22:14:00,
2013-02-17 17:29:00,48.5,30.0,30.33,WNW,298,2.0,5.0,50,0.00,,,0.00,weatherlink.com 1.10,2013-02-17 22:29:00,
2013-02-17 17:49:00,47.9,31.0,30.33,NW,309,1.0,3.0,52,0.00,,,0.00,weatherlink.com 1.10,2013-02-17 22:49:00,
2013-02-17 18:06:00,47.1,31.0,30.33,NW,309,1.0,5.0,54,0.00,,,0.00,weatherlink.com 1.10,2013-02-17 23:06:00,
2013-02-17 18:24:00,46.5,31.0,30.33,NW,309,0.0,4.0,55,0.00,,,0.00,weatherlink.com 1.10,2013-02-17 23:24:00,
2013-02-17 18:44:00,45.4,31.0,30.33,NW,322,0.0,1.0,58,0.00,,,0.00,weatherlink.com 1.10,2013-02-17 23:44:00,
2013-02-17 19:02:00,44.1,32.0,30.33,NNW,333,0.0,1.0,62,0.00,,,0.00,weatherlink.com 1.10,2013-02-18 00:02:00,
2013-02-17 19:20:00,43.3,32.0,30.33,NNW,333,0.0,1.0,65,0.00,,,0.00,weatherlink.com 1.10,2013-02-18 00:20:00,
2013-02-17 19:40:00,42.6,33.0,30.34,NNW,334,0.0,0.0,68,0.00,,,0.00,weatherlink.com 1.10,2013-02-18 00:40:00,
2013-02-17 19:58:00,42.0,32.0,30.34,NNW,333,0.0,0.0,69,0.00,,,0.00,weatherlink.com 1.10,2013-02-18 00:58:00,
2013-02-17 20:15:00,41.3,33.0,30.35,NNW,333,0.0,0.0,71,0.00,,,0.00,weatherlink.com 1.10,2013-02-18 01:15:00,
2013-02-17 20:35:00,40.5,32.0,30.35,NNW,333,0.0,0.0,72,0.00,,,0.00,weatherlink.com 1.10,2013-02-18 01:35:00,
2013-02-17 20:52:00,39.8,32.0,30.36,NNW,334,0.0,0.0,73,0.00,,,0.00,weatherlink.com 1.10,2013-02-18 01:52:00,
2013-02-17 21:10:00,38.8,32.0,30.36,NNW,333,0.0,0.0,76,0.00,,,0.00,weatherlink.com 1.10,2013-02-18 02:10:00,
2013-02-17 21:28:00,38.6,32.0,30.36,NNW,334,0.0,0.0,77,0.00,,,0.00,weatherlink.com 1.10,2013-02-18 02:28:00,
2013-02-17 21:43:00,38.4,32.0,30.37,NNW,334,0.0,0.0,78,0.00,,,0.00,weatherlink.com 1.10,2013-02-18 02:43:00,
2013-02-17 21:58:00,37.9,32.0,30.38,NNW,333,0.0,0.0,79,0.00,,,0.00,weatherlink.com 1.10,2013-02-18 02:58:00,
2013-02-17 22:13:00,37.5,32.0,30.38,NNW,333,0.0,0.0,80,0.00,,,0.00,weatherlink.com 1.10,2013-02-18 03:13:00,
2013-02-17 22:28:00,37.3,33.0,30.38,NNW,333,0.0,0.0,83,0.00,,,0.00,weatherlink.com 1.10,2013-02-18 03:28:00,
2013-02-17 22:43:00,36.8,32.0,30.39,NNW,333,0.0,0.0,82,0.00,,,0.00,weatherlink.com 1.10,2013-02-18 03:43:00,
2013-02-17 22:58:00,36.6,31.0,30.39,NNW,333,0.0,0.0,81,0.00,,,0.00,weatherlink.com 1.10,2013-02-18 03:58:00,
2013-02-17 23:13:00,37.2,33.0,30.39,NNW,333,0.0,0.0,83,0.00,,,0.00,weatherlink.com 1.10,2013-02-18 04:13:00,
2013-02-17 23:28:00,36.8,32.0,30.39,NNW,334,0.0,0.0,82,0.00,,,0.00,weatherlink.com 1.10,2013-02-18 04:28:00,
2013-02-17 23:43:00,36.6,32.0,30.39,NNW,333,0.0,0.0,83,0.00,,,0.00,weatherlink.com 1.10,2013-02-18 04:43:00,
2013-02-17 23:58:00,37.1,32.0,30.39,NNW,334,0.0,0.0,82,0.00,,,0.00,weatherlink.com 1.10,2013-02-18 04:58:00,